• Processing (Info)

  • MPEC 2022-Q147 : 2022 QZ5

    The following Minor Planet Electronic Circular may be linked-to from your own Web pages, but must not otherwise be redistributed electronically.

    A form allowing access to any MPEC is at the bottom of this page.


    Read MPEC 2022-Q146 Read MPEC 2022-Q148


    M.P.E.C. 2022-Q147                              Issued 2022 August 27, 17:08 UT
    
         The Minor Planet Electronic Circulars contain information on unusual
             minor planets and routine data on comets.  They are published
        on behalf of Division F of the International Astronomical Union by the
              Minor Planet Center, Smithsonian Astrophysical Observatory,
                              Cambridge, MA 02138, U.S.A.
    
                 Prepared using the Tamkin Foundation Computer Network
    
                                  MPC@CFA.HARVARD.EDU
                URL https://www.minorplanetcenter.net/    ISSN 1523-6714
    
                                    2022 QZ5                                 
    
    
    Observations:
         K22Q05Z* C2022 08 25.50055701 46 18.588-11 39 16.35         21.70wUEQ147F51
         K22Q05Z  C2022 08 25.51399801 46 20.031-11 39 21.58         21.33GVEQ147F51
         K22Q05Z  C2022 08 25.53436901 46 22.204-11 39 29.95         21.08GVEQ147F51
         K22Q05Z  C2022 08 25.54785501 46 23.655-11 39 35.27         21.34wUEQ147F51
         K22Q05Z  C2022 08 25.62337201 46 31.727-11 40 05.52         21.13GVEQ147F51
         K22Q05Z  C2022 08 25.62401501 46 31.799-11 40 05.77         21.13GVEQ147F51
         K22Q05Z !C2022 08 26.09300 01 47 25.98 -11 43 18.3          20.6 GVEQ147J04
         K22Q05Z  C2022 08 26.47563301 48 10.015-11 45 55.25         20.93GVEQ147F51
         K22Q05Z  C2022 08 26.47628001 48 10.092-11 45 55.66         20.92GVEQ147F51
         K22Q05Z KC2022 08 27.03540701 49 14.79 -11 49 59.6          21.4 GVEQ147L01
         K22Q05Z KC2022 08 27.03907801 49 15.21 -11 50 01.0          21.5 GVEQ147L01
         K22Q05Z KC2022 08 27.04407901 49 15.79 -11 50 03.2          21.7 GVEQ147L01
         K22Q05Z !C2022 08 27.10188 01 49 22.72 -11 50 25.9          20.3 GVEQ147J04
         K22Q05Z KC2022 08 27.34293701 49 50.79 -11 52 14.3          21.6 VuEQ147H21
         K22Q05Z KC2022 08 27.34730201 49 51.28 -11 52 16.1          21.6 VuEQ147H21
         K22Q05Z KC2022 08 27.34873201 49 51.44 -11 52 16.8          21.8 VuEQ147H21
         K22Q05Z  C2022 08 27.54693501 50 14.875-11 53 41.31         21.19GVEQ147F51
         K22Q05Z  C2022 08 27.54776601 50 14.969-11 53 41.74         21.12GVEQ147F51
    
    Observer details:
    F51 Pan-STARRS 1, Haleakala.  Observers J. Bulger, T. Lowe, A. Schultz, I.
        Smith, K. Chambers.  Measurers K. Chambers, S. Chastel, T. de Boer, J.
        Fairlamb, H. Gao, M. Huber, C.-C. Lin, E. Magnier, Y. Ramanjooloo, R.
        Wainscoat, R. Weryk.  1.8-m Ritchey-Chretien + CCD.
    H21 Astronomical Research Observatory, Westfield.  Observer R. Holmes.
        Measurers T. Linder, R. Holmes, L. Horn.  1.3-m f/4.0 astrograph + CCD.
    J04 ESA Optical Ground Station, Tenerife.  Observers P. Ruiz, M. Micheli, D.
        Fohring, L. Conversi, D. Koschny.  Measurers R. Kresken, M. Micheli, A.
        Knofel, M. Busch, E. Schwab.  1.0-m f/4.4 reflector + CCD.
    L01 Visnjan Observatory, Tican.  Observers K. Korlevic, E. Pettarin.  Measurer
        E. Pettarin.  1.0-m f/2.9 reflector + CCD.
    
    Orbital elements:
    2022 QZ5                                            PHA, Earth MOID = 0.0493 AU
    Epoch 2022 Aug. 9.0 TT = JDT 2459800.5                  Veres                   
    M 319.51325              (2000.0)            P               Q                  
    n   0.39700063     Peri.   69.49863     -0.28517401     -0.95170253             
    a   1.8334761      Node    37.66951     +0.79536505     -0.30119465             
    e   0.6968192      Incl.   10.72708     +0.53485533     -0.05953221             
    P   2.48           H   20.55          G   0.15           U   9                  
    Residuals in seconds of arc
    220825 F51  0.0   0.1-    220826 J04  0.0   0.6-    220827 J04  0.3-  0.1-
    220825 F51  0.0   0.1+    220826 F51  0.0   0.1+    220827 H21  0.2-  0.0
    220825 F51  0.1-  0.0     220826 F51  0.1+  0.0     220827 H21  0.2-  0.2+
    220825 F51  0.0   0.1+    220827 L01  0.1+  0.6+    220827 H21  0.3-  0.1+
    220825 F51  0.1-  0.0     220827 L01  0.2+  0.8+    220827 F51  0.0   0.1-
    220825 F51  0.0   0.0     220827 L01  0.5+  0.9+    220827 F51  0.0   0.1-
    
    Ephemeris:
    2022 QZ5                 a,e,i = 1.83, 0.70, 11                  q = 0.5559
    Date    TT    R. A. (2000) Decl.     Delta      r    Elong.  Phase     V
    2022 07 28    01 01 25.6 -10 23 13   1.0425  1.7227   113.7    32.7    23.2
    ...
    2022 08 12    01 23 33.9 -10 39 09   0.7849  1.5768   122.0    33.0    22.4
    ...
    2022 08 20    01 36 29.4 -11 08 03   0.6553  1.4945   126.0    33.2    21.9
    ...
    2022 08 26    01 47 14.7 -11 42 30   0.5620  1.4308   128.7    33.5    21.5
    2022 08 27    01 49 10.2 -11 49 31   0.5468  1.4200   129.1    33.5    21.4
    2022 08 28    01 51 08.6 -11 56 57   0.5317  1.4092   129.4    33.6    21.3
    ...
    2022 09 03    02 04 17.0 -12 51 23   0.4433  1.3431   131.2    34.4    20.8
    ...
    2022 09 11    02 27 48.3 -14 39 06   0.3316  1.2523   131.7    36.9    20.1
    ...
    2022 09 26    04 21 25.0 -21 38 22   0.1508  1.0743   114.6    58.1    18.7
    
    M. P. C. Staff               (C) Copyright 2022 MPC           M.P.E.C. 2022-Q147
    


    Read MPEC 2022-Q146 Read MPEC 2022-Q148


    MPEC number:

    Enter an MPEC number in one of the following forms:

    • 1997-B01 (the full form)
    • J97B01 (the packed version of the full form)
    • B01 (the abbreviated form)